Location: Sungai Liu
(2.3667°N, 113.8667°E)
Time: 12:53:14
(UTC+00:00)

ATLAS 5 CENTAUR R/B - Pass Details

Date: 20 May 2022
Orbit: 293 x 12461 km, 20.2° (Epoch: 06 July)

Event Time Altitude Azimuth Distance (km) Brightness Sun altitude
Exits shadow 21:04:17 20° 231° (SW) 3,312 4.2 -17.1°
Maximum altitude 21:11:54 39° 175° (S) 4,045 5.0 -15.4°
Drops below altitude 10° 21:58:01 10° 113° (ESE) 13,963 8.7 -4.6°
Sets 22:28:51 0° 105° (ESE) 17,338 9.4 2.6°
